Flag for U.S.A. Weather past 2 weeks in Rochester, New York, U.S.A.

Now
33 °F

Overcast.


Feels Like: 33 °F
Forecast: 29 / 35 °F
Wind: No wind

Location: Greater Rochester International Airport

Current Time: Dec 21, 2014 at 6:32:44 PM

Latest Report: Dec 21, 2014 at 5:54 PM


Visibility: 10 mi

Pressure: 30.34 "Hg

Humidity: 61%

Dew point: 21 °F

Location of RochesterLocation

Historic Weather in Rochester — Graph

°F

Rochester temperature yesterday

Maximum temperature yesterday: 31 °F (at 12:54 PM)
Minimum temperature yesterday: 28 °F (at 2:54 AM)
Average temperature yesterday: 29 °F

Past Weeks' High & Low Weather Summary

 TemperatureHumidityPressure
High44 °F (Dec 9, 12:54 PM)97% (Dec 14, 6:54 AM)30.78 "Hg (Dec 14, 6:54 AM)
Low22 °F (Dec 7, 9:54 PM)30% (Dec 8, 12:54 PM)29.71 "Hg (Dec 11, 4:03 AM)
Average32 °F80%30.12 "Hg
* Reported Dec 6 4:54 PM — Dec 21 4:54 PM, Rochester, Weather by CustomWeather, © 2014

Note: Actual official high and low records may vary slightly from our data, if they occured in-between our weather recording intervals... More about our weather records

Advertising

Rochester weather history for previous 24 hours

 ConditionsComfort  
Time TempWeatherWind HumidityBarometerVisibility
4:54 PM
Dec 21
33 °FOvercast.5 mph63%30.33 "Hg10 mi
3:54 PM34 °FOvercast.8 mph61%30.32 "Hg10 mi
2:54 PM35 °FPartly sunny.7 mph59%30.31 "Hg10 mi
1:54 PM36 °FScattered clouds.5 mph57%30.31 "Hg10 mi
12:54 PM35 °FBroken clouds.7 mph61%30.32 "Hg10 mi
11:54 AM34 °FBroken clouds.6 mph61%30.33 "Hg10 mi
10:54 AM34 °FScattered clouds.6 mph67%30.35 "Hg10 mi
9:54 AM30 °FPartly sunny.6 mph79%30.36 "Hg10 mi
8:54 AM28 °FBroken clouds.No wind85%30.35 "Hg8 mi
7:54 AM27 °FScattered clouds.3 mph81%30.34 "Hg9 mi
6:54 AM27 °FPassing clouds.3 mph81%30.32 "Hg10 mi
5:54 AM27 °FMostly cloudy.3 mph85%30.32 "Hg10 mi
4:54 AM28 °FOvercast.3 mph78%30.30 "Hg10 mi
3:54 AM29 °FOvercast.3 mph79%30.31 "Hg10 mi
2:54 AM29 °FOvercast.No wind79%30.31 "Hg10 mi
1:54 AM29 °FOvercast.3 mph82%30.30 "Hg10 mi
12:54 AM30 °FOvercast.No wind75%30.29 "Hg10 mi
11:54 PM
Dec 20
30 °FOvercast.No wind75%30.30 "Hg10 mi
10:54 PM30 °FOvercast.No wind72%30.31 "Hg10 mi
9:54 PM30 °FOvercast.No wind69%30.32 "Hg10 mi
8:54 PM30 °FOvercast.No wind72%30.31 "Hg10 mi
7:54 PM30 °FOvercast.5 mph69%30.32 "Hg10 mi
6:54 PM30 °FOvercast.3 mph69%30.31 "Hg10 mi
Weather by CustomWeather, © 2014

See weather overviewHow to use our weather pages